Tracking 19832 objects as of 25-Aug-2019
HD Live streaming from Space Station
objects crossing your sky now

FENGYUN 1C DEB

Track FENGYUN 1C DEB now!
10-day predictions


NORAD ID: 31751
Int'l Code: 1999-025CFA
Perigee: 722.6 km
Apogee: 813.4 km
Inclination: 98.9 °
Period: 100.1 minutes
Semi major axis: 7139 km
RCS: 0.0135 m2 (small)
Launch date: May 10, 1999
Source: People's Republic of China (PRC)
Launch site: Taiyaun Space Center, China (TSC)

Note: This is SATELLITE DEBRIS
aabbcc
Your satellite tracking list
Your tracking list is empty




NASA's NSSDC Master Catalog

Two Line Element Set (TLE):
1 31751U 99025CFA 19232.56993895  .00000883  00000-0  29289-3 0  9995
2 31751  98.8695 346.3568 0063592  89.5200 271.3273 14.39273365639497
Source of the keplerian elements: AFSPC